This demonstration page uses our WeatherBlox Daily Observations layout. Learn more.

39.92423, -83.80882

Hourly Observations for September 9, 2017

Temp ( °F °C ) Dew Point ( °F °C ) Humidity (%) Winds ( mph kmh ) Pressure ( in mb ) Visibility ( mi km ) Precip ( " mm )
12:56 am 00:56 Mostly Cloudy 56 13.3 54 12.2 93 93 ENE 7 11 30.3 1026 10 16.09344 0.001 0.001
1:56 am 01:56 Cloudy with Light Rain 56 13.3 53 11.7 90 90 E 7 11 30.3 1026 10 16.09344 0.001 0.001
2:56 am 02:56 Cloudy 55 12.8 52 11.1 90 90 ENE 6 9 30.3 1026 10 16.09344 0.001 0.001
3:56 am 03:56 Mostly Cloudy 53 11.7 51 10.6 93 93 ENE 6 9 30.33 1027 10 16.09344 0 0
4:56 am 04:56 Partly Cloudy 51 10.6 48 8.9 89 89 ENE 7 11 30.33 1027 10 16.09344 0 0
5:56 am 05:56 Cloudy 54 12.2 51 10.6 90 90 ENE 6 9 30.33 1027 10 16.09344 0 0
6:56 am 06:56 Partly Cloudy 51 10.6 49 9.4 92 92 NE 8 13 30.36 1028 10 16.09344 0 0
7:56 am 07:56 Partly Cloudy 50 10 48 8.9 93 93 ENE 8 13 30.39 1029 10 16.09344 0 0
8:56 am 08:56 Sunny 55 12.8 50 10 83 83 NE 10 17 30.39 1029 10 16.09344 0 0
9:56 am 09:56 Sunny 59 15 50 10 72 72 NE 10 17 30.39 1029 10 16.09344 0 0
10:56 am 10:56 Sunny 62 16.7 50 10 65 65 NE 9 15 30.42 1030 10 16.09344 0 0
11:56 am 11:56 Sunny 63 17.2 50 10 63 63 NE 9 15 30.42 1030 10 16.09344 0 0
12:56 pm 12:56 Sunny 65 18.3 48 8.9 54 54 N 5 7 30.39 1029 10 16.09344 0 0
1:56 pm 13:56 Sunny 67 19.4 47 8.3 49 49 NE 5 7 30.39 1029 10 16.09344 0 0
2:56 pm 14:56 Sunny 68 20 44 6.7 42 42 NE 6 9 30.36 1028 10 16.09344 0 0
3:56 pm 15:56 Sunny 69 20.6 43 6.1 39 39 E 9 15 30.36 1028 10 16.09344 0 0
4:56 pm 16:56 Sunny 69 20.6 42 5.6 38 38 ENE 12 19 30.36 1028 10 16.09344 0 0
5:56 pm 17:56 Sunny 68 20 44 6.7 42 42 E 5 7 30.33 1027 10 16.09344 0 0
6:56 pm 18:56 Sunny 66 18.9 45 7.2 47 47 NE 8 13 30.33 1027 10 16.09344 0 0
7:56 pm 19:56 Clear 60 15.6 47 8.3 62 62 NE 6 9 30.36 1028 10 16.09344 0 0
8:56 pm 20:56 Clear 55 12.8 45 7.2 69 69 NE 7 11 30.36 1028 10 16.09344 0 0
9:56 pm 21:56 Clear 56 13.3 48 8.9 75 75 NE 10 17 30.36 1028 10 16.09344 0 0
10:56 pm 22:56 Clear 54 12.2 49 9.4 83 83 NE 12 19 30.39 1029 10 16.09344 0 0
11:56 pm 23:56 Clear 52 11.1 48 8.9 86 86 NE 8 13 30.39 1029 10 16.09344 0 0

Powered by AerisWeather